Temperature
16 16 16 16 19 20 21 22 22 22 22 22 22 23 24 25 25 24 21 20 20 19 17 16 15 15 14 14 14 14 14 14 13 13 13 13 13 13 13 12 12 12 12 12 12 12 12 12 12
15 16 16 18 20 21 22 22 22 23 23 21 21 22 23 24 22 21 21 20 19 18 17 15 15 14 14 14 14 14 14 13 13 13 13 12 12 12 12 12 12 12 12 12 12 12 12 12 12
15 16 17 20 20 21 22 22 23 22 21 21 22 22 23 23 21 20 21 20 18 17 16 15 15 14 14 14 14 13 13 13 13 13 12 12 12 12 12 12 12 12 12 12 12 11 11 12 12
15 16 18 19 20 21 22 23 22 22 21 20 22 23 22 20 19 20 21 20 18 16 15 15 14 14 14 14 14 13 13 13 13 13 12 12 12 12 12 11 12 12 12 11 11 11 11 11 12
15 17 19 19 20 22 22 22 21 22 22 22 21 23 22 20 21 21 21 20 18 16 15 14 14 14 14 14 13 13 13 13 13 12 12 12 11 11 12 11 11 11 11 11 11 11 11 11 11
16 18 18 19 20 21 22 21 20 21 22 22 21 23 22 20 20 20 20 19 17 16 15 14 14 14 14 13 13 13 13 13 12 12 12 11 11 11 11 11 11 11 11 11 11 10 10 10 10
16 17 18 19 20 21 22 21 21 22 22 22 22 23 22 19 20 19 19 17 16 15 14 14 14 14 13 13 13 13 13 13 12 12 12 11 11 11 11 11 11 11 11 11 10 10 10 10 10
15 18 18 19 19 20 21 20 20 21 22 21 21 23 23 19 20 19 17 16 15 15 14 14 13 13 13 13 13 13 13 12 12 12 12 12 11 11 11 11 11 11 10 10 10 10 10 10 10
14 16 17 19 19 20 20 20 20 19 21 20 20 21 20 20 20 18 17 16 15 15 14 14 13 13 13 13 13 12 12 12 12 12 12 11 11 10 11 10 11 10 10 10 10 10 10 10 10
14 16 17 19 20 20 20 20 20 20 21 20 19 18 19 19 19 18 18 17 16 15 14 14 13 13 13 13 12 12 12 12 11 11 11 11 10 10 10 10 10 10 10 10 10 10 10 9 9
15 16 18 19 18 19 19 19 19 20 21 22 21 19 18 18 17 18 18 18 18 16 15 14 14 13 13 13 12 12 12 12 11 11 11 11 10 10 10 10 10 10 10 9 9 9 9 9 9
15 16 17 18 17 17 18 19 19 19 21 21 20 19 19 18 17 18 18 17 16 16 16 15 14 14 13 13 12 12 12 12 12 11 11 11 11 11 10 10 10 9 9 9 9 9 9 9 9
15 16 16 16 16 17 17 18 19 19 19 19 19 18 18 18 18 18 18 17 17 16 16 16 15 14 14 13 13 12 12 12 12 12 11 11 11 11 10 10 10 9 9 9 9 9 9 9 9
15 15 16 16 16 16 17 18 18 19 18 18 18 18 18 18 18 17 17 17 17 17 17 16 15 15 14 13 13 13 12 12 12 12 12 11 11 11 10 10 10 9 9 9 9 9 9 9 9
14 15 15 16 16 17 17 17 18 18 18 18 18 18 18 18 18 18 18 18 18 18 17 17 16 15 14 14 13 13 13 12 12 12 12 11 11 11 10 10 10 9 9 9 9 9 9 9 9
14 14 14 16 16 16 16 16 19 19 18 18 19 19 18 18 18 18 18 18 17 17 17 17 16 16 15 14 14 13 13 12 12 12 12 11 11 11 10 10 10 9 9 9 9 9 9 9 9
12 13 14 16 17 17 16 16 19 19 18 19 19 19 19 18 18 18 18 18 17 17 17 17 17 16 15 14 14 13 13 13 12 12 12 12 11 11 10 10 10 9 9 9 9 9 9 9 9
12 14 15 16 17 16 16 17 19 18 18 19 19 20 19 19 19 19 18 18 17 17 16 16 16 16 15 14 13 13 12 12 12 12 12 12 11 11 10 10 10 9 9 9 9 9 9 9 9
13 14 14 16 17 16 16 17 18 19 18 19 19 20 19 19 19 19 18 17 17 16 16 16 16 16 15 14 14 13 13 13 13 12 12 12 11 11 10 10 10 9 9 9 9 9 9 9 8
12 12 13 15 16 15 16 16 18 19 19 18 19 19 19 19 19 18 18 17 17 17 17 17 17 16 16 16 16 16 14 13 12 12 12 12 12 11 11 10 10 10 9 9 9 9 9 9 9
11 11 13 14 14 14 15 15 17 18 18 18 18 19 19 19 19 19 18 17 17 17 17 17 17 17 17 16 15 14 13 12 12 12 12 12 12 11 11 10 10 10 9 9 9 9 9 9 9
10 12 12 13 13 13 14 14 17 18 18 18 18 18 19 19 19 19 18 18 17 18 18 18 18 17 17 16 15 14 14 14 15 14 13 12 12 11 11 10 10 10 10 9 9 9 9 9 9
11 12 12 12 12 12 13 13 16 18 17 18 19 18 18 19 18 18 18 18 18 19 18 18 18 17 17 16 16 15 15 15 14 13 12 12 12 11 11 10 10 10 10 10 9 9 9 9 9
11 11 10 11 10 10 12 13 15 17 18 19 19 19 19 18 18 18 18 18 18 18 18 18 18 17 17 16 16 16 16 15 13 13 12 12 12 11 11 11 10 10 10 10 10 9 9 9 9
10 9 9 9 9 11 14 13 15 18 18 19 19 19 19 18 18 18 18 18 18 18 18 18 18 18 17 17 16 16 16 15 14 14 13 13 12 12 12 11 11 10 10 10 10 9 9 9 9
9 9 10 10 11 13 14 13 16 18 18 18 18 18 18 18 18 18 18 18 18 18 18 18 18 18 18 17 17 16 16 14 14 14 13 13 13 13 13 12 11 11 10 10 10 9 9 9 9
8 9 10 11 12 12 13 15 16 16 17 17 17 17 17 17 17 17 17 17 18 18 18 18 18 18 18 17 17 16 15 15 15 14 13 13 13 12 12 12 11 11 10 10 10 9 9 9 9
9 9 9 9 10 11 13 14 16 16 16 17 17 17 17 17 16 16 17 17 17 18 18 18 18 18 18 17 17 16 16 15 14 14 13 13 12 12 12 11 11 11 10 10 10 10 9 9 9
8 8 8 8 10 12 13 15 17 18 17 17 17 17 17 17 16 16 16 17 17 17 17 17 17 17 17 17 16 16 15 14 14 13 13 12 12 12 11 11 11 11 10 10 10 9 9 9 9
8 8 7 8 9 11 13 16 16 16 17 17 17 17 16 16 15 15 16 16 16 17 16 17 17 17 17 17 16 16 15 14 13 13 13 12 12 11 11 11 11 10 10 10 10 9 9 9 9
Wind_Speed
3 3 3 4 6 8 14 11 9 7 6 7 7 7 8 9 6 1 4 15 18 22 24 26 25 23 22 20 19 18 17 16 15 15 14 14 14 14 14 14 14 14 14 14 14 15 15 15 15
3 3 4 5 8 12 12 11 13 12 5 4 6 8 8 8 2 3 8 15 20 22 23 25 25 24 23 21 20 18 17 16 15 15 14 14 14 14 14 14 14 14 14 14 13 14 14 14 14
3 4 5 6 10 14 9 7 10 8 6 7 6 6 7 4 4 6 10 18 20 21 22 24 26 25 23 22 20 19 18 17 16 15 15 14 14 14 14 14 14 14 13 13 13 13 13 13 14
4 5 6 11 18 16 12 4 3 5 6 8 7 6 5 1 2 6 15 20 21 21 21 24 25 25 24 22 21 20 18 17 16 15 14 14 14 14 14 14 14 13 13 13 13 12 13 13 13
5 6 11 16 21 16 13 11 7 7 6 7 9 7 6 3 4 11 18 20 21 20 20 24 24 25 23 22 21 20 19 17 16 16 15 14 14 14 14 13 13 13 12 12 12 12 12 12 12
6 7 12 19 21 17 14 12 11 13 11 9 8 8 5 5 9 13 18 19 20 20 19 23 24 24 24 22 21 20 19 18 17 16 15 15 15 14 14 13 13 12 12 12 12 11 11 11 11
10 11 17 20 19 18 15 12 14 14 14 12 9 8 6 8 10 15 17 18 18 18 18 20 23 23 23 22 21 20 19 18 17 16 16 15 14 14 13 13 12 12 12 11 11 10 10 10 10
10 8 17 19 19 18 12 10 10 14 14 8 9 10 8 12 14 16 16 17 17 17 17 18 21 22 22 21 21 20 19 18 18 16 16 15 14 14 13 12 12 11 11 10 10 9 10 10 9
8 12 20 20 16 13 9 11 9 6 9 7 7 4 2 17 18 18 16 16 17 17 17 17 18 19 20 20 21 20 19 18 18 16 16 15 13 13 12 11 11 11 10 9 9 9 9 9 9
12 19 25 17 15 12 10 10 8 7 10 10 9 4 8 17 20 21 21 22 21 22 20 18 18 18 18 17 19 18 17 17 16 15 16 13 11 11 11 13 11 10 9 9 9 9 8 5 6
14 21 22 19 16 13 12 11 9 11 12 12 13 12 14 17 20 21 22 23 23 23 21 19 18 17 17 14 16 14 14 15 15 15 15 12 11 10 10 10 10 10 9 8 8 7 5 4 3
18 22 21 19 17 15 16 13 13 15 14 7 8 11 17 20 22 23 23 22 21 22 22 20 19 17 17 16 14 14 13 13 13 14 15 13 10 10 10 8 9 8 7 6 6 4 5 4 3
26 23 20 20 18 18 18 19 17 17 16 10 7 11 17 20 23 22 21 20 20 22 23 22 21 19 17 15 13 13 13 13 14 14 15 14 10 9 10 8 8 8 7 7 5 5 4 4 3
20 22 23 20 21 19 20 22 20 20 15 13 12 14 17 20 22 21 20 21 22 22 23 22 22 20 18 16 14 13 13 14 14 14 15 15 12 11 10 9 8 8 7 6 5 5 4 3 2
19 19 21 23 23 20 17 24 28 23 18 17 17 17 17 19 20 22 23 23 23 23 23 23 22 21 20 18 16 13 13 14 13 14 16 16 14 13 11 9 8 8 8 7 6 5 4 3 2
17 20 23 23 22 21 18 28 24 21 22 22 20 19 18 19 21 22 22 22 21 21 22 23 20 22 21 19 16 13 14 14 13 14 15 17 16 15 12 9 9 9 8 7 6 5 4 3 3
15 21 26 24 21 19 23 25 20 19 20 22 22 21 20 19 20 21 22 22 21 22 22 23 23 23 22 19 16 14 14 14 14 15 15 17 18 16 13 10 10 11 9 7 6 5 5 4 3
19 24 26 27 19 22 25 26 20 16 19 22 23 22 21 21 22 22 22 22 21 21 21 22 22 22 20 17 14 12 13 13 14 14 15 18 18 18 15 11 12 12 9 8 7 7 5 4 3
22 24 25 23 18 19 26 27 25 21 19 21 22 22 22 22 21 20 20 21 21 21 22 23 23 22 19 16 16 16 16 15 14 13 17 19 19 19 16 11 12 11 10 10 9 7 7 5 4
25 25 25 19 16 17 22 26 24 24 24 22 24 24 23 22 21 19 19 20 22 23 24 24 24 23 23 19 18 17 16 14 13 11 15 19 20 19 17 15 12 12 10 11 11 9 6 5 5
27 26 25 19 13 15 17 23 25 24 24 23 24 24 24 23 24 22 20 21 22 23 25 23 25 25 25 23 17 14 12 11 12 15 15 18 20 20 19 18 15 13 13 11 12 12 10 7 6
24 24 23 20 15 13 16 17 24 23 24 25 26 25 25 24 24 22 21 21 22 24 23 24 25 25 25 24 20 21 18 17 19 16 15 17 20 20 20 19 17 15 13 13 12 12 10 9 7
19 16 19 19 18 17 16 15 18 19 24 26 26 27 26 25 24 23 22 21 21 22 21 22 24 24 25 25 25 24 21 19 16 16 17 17 17 18 19 19 17 15 14 14 13 12 12 9 9
16 12 13 15 14 19 24 19 17 20 24 24 24 25 25 24 24 23 21 19 18 18 19 20 22 23 24 25 25 26 25 22 19 19 18 16 14 15 18 18 17 16 14 14 13 13 14 11 10
17 11 9 11 13 16 21 19 18 19 21 22 22 22 23 22 22 21 21 19 18 18 19 19 22 23 24 25 26 26 26 24 22 20 19 17 14 14 18 18 17 16 15 14 13 13 13 13 12
20 20 13 10 12 15 16 19 18 20 19 20 20 20 20 21 20 19 19 19 18 18 19 20 21 21 22 24 25 24 24 19 17 19 17 18 15 16 18 19 18 17 16 14 13 11 12 11 12
14 18 17 11 10 11 11 15 17 14 18 20 20 20 20 19 19 18 17 17 17 17 18 19 20 20 21 22 23 22 22 21 19 19 18 16 15 14 18 18 18 17 16 15 13 11 12 11 11
13 11 9 10 10 12 12 17 15 17 21 21 21 21 20 17 16 16 15 15 15 15 15 17 18 19 19 20 20 17 20 20 19 17 18 17 17 15 16 17 17 16 15 15 14 11 11 11 10
12 12 8 8 9 11 12 12 12 15 16 19 20 20 18 16 15 14 13 13 13 13 14 15 16 16 17 18 18 18 18 18 18 17 17 17 16 16 16 16 16 16 15 15 13 13 12 12 11
11 12 11 9 9 13 13 9 4 9 11 12 14 14 13 12 11 11 11 12 12 13 13 14 14 15 15 16 17 17 17 17 17 17 16 16 16 15 15 15 15 15 14 14 14 13 13 13 12
Wind_Direction
208 224 213 207 216 229 237 229 224 211 211 215 206 205 213 206 203 197 107 157 153 156 159 160 159 157 155 152 148 144 141 137 134 131 128 123 118 113 110 106 102 98 97 96 93 89 87 86 84
219 203 207 215 230 231 234 229 225 225 213 180 200 215 217 217 224 112 143 157 156 156 159 161 158 158 156 152 149 147 144 141 138 135 133 129 123 119 115 111 106 103 101 99 96 93 90 89 87
198 218 216 218 229 233 234 220 228 226 220 209 202 213 220 201 167 149 151 157 157 157 160 158 159 158 156 154 151 150 147 144 141 139 137 133 129 125 120 114 110 107 105 103 100 97 95 93 90
205 205 222 233 235 234 242 225 191 208 204 215 216 204 194 123 136 139 147 158 158 159 160 157 161 159 157 155 153 152 150 148 147 144 141 137 131 127 122 118 114 111 109 107 104 102 100 96 93
219 221 225 234 241 241 241 249 246 241 215 202 208 210 184 134 121 141 153 160 160 160 160 160 164 160 159 157 156 154 152 151 150 148 145 139 133 129 126 122 119 116 114 111 107 104 102 99 96
209 221 231 237 239 241 241 241 242 245 237 225 218 216 187 138 147 152 157 161 161 160 161 162 165 162 161 160 158 156 155 153 152 150 147 142 137 133 129 127 124 121 118 115 112 109 105 102 99
222 222 238 244 248 245 241 233 235 240 236 226 213 206 176 158 151 153 157 160 161 162 164 165 168 166 164 161 160 159 159 156 155 152 148 144 142 140 137 133 130 125 121 119 116 112 109 104 101
230 233 240 240 244 247 241 227 235 238 238 230 212 213 194 159 149 152 155 160 163 167 169 170 171 170 168 165 163 162 161 159 157 152 147 144 145 144 141 140 133 129 127 124 120 115 111 105 100
217 231 236 231 237 243 229 225 225 231 227 210 209 228 97 137 149 151 156 164 170 175 176 177 174 173 171 169 165 164 163 162 157 154 147 152 156 151 150 141 138 134 131 127 121 117 113 115 109
211 231 235 236 237 244 229 227 224 213 217 213 202 171 140 151 160 165 169 173 178 181 181 181 179 176 173 169 168 171 170 167 170 166 163 167 162 156 151 138 142 137 134 130 121 122 131 148 127
217 234 240 240 240 246 244 237 230 230 230 223 212 186 165 170 177 180 182 182 183 182 181 183 182 180 176 172 173 174 173 173 177 173 172 169 163 159 161 158 155 154 156 151 140 156 148 141 118
231 237 241 242 238 238 243 245 238 234 238 237 227 181 174 182 189 191 189 187 184 184 185 184 183 182 181 178 178 177 176 177 178 179 177 173 171 172 171 171 167 167 168 161 164 158 146 145 143
231 238 238 241 241 240 245 245 247 246 246 251 234 189 192 195 198 199 195 188 186 187 187 187 186 185 184 184 182 183 182 180 181 180 183 180 177 178 176 176 174 176 171 172 174 172 160 160 150
233 238 240 240 239 239 243 248 245 245 244 241 229 214 208 205 204 199 196 193 193 192 190 188 189 188 186 187 186 186 186 183 183 183 186 185 184 182 182 180 181 181 180 179 181 177 171 166 161
237 239 241 238 236 237 242 249 241 241 239 238 232 225 219 215 209 205 201 199 196 194 191 190 190 190 190 191 190 188 188 187 188 187 189 190 189 187 186 185 185 185 182 182 184 175 177 168 166
224 231 238 234 228 228 226 246 240 233 232 237 236 230 223 220 216 212 208 205 200 196 193 192 190 192 193 193 192 191 191 190 192 191 191 193 193 191 189 189 190 186 183 186 186 184 185 182 183
217 225 230 232 222 220 221 244 244 231 228 233 233 231 227 223 220 216 212 207 203 198 195 193 192 194 194 193 193 193 192 194 195 194 194 195 196 194 194 194 191 186 187 191 187 193 192 187 182
216 223 229 231 220 219 227 239 239 231 227 231 232 231 228 226 222 217 212 208 204 200 196 195 194 195 193 192 194 194 196 198 198 197 197 196 197 197 197 196 195 190 191 192 191 189 188 192 179
235 233 233 235 227 222 233 239 239 233 230 232 232 231 229 228 227 220 212 207 203 199 197 196 195 194 191 191 193 195 199 199 200 200 200 199 199 197 198 196 196 196 198 196 194 188 184 188 181
235 239 238 240 232 228 239 243 242 238 234 234 234 232 231 230 227 220 211 205 202 200 198 198 197 195 194 196 196 199 199 200 199 198 203 202 201 199 199 199 197 197 199 198 195 192 191 186 194
231 234 233 232 227 232 245 248 242 239 236 235 236 235 234 230 228 221 212 206 203 202 200 199 198 197 197 197 194 194 194 195 197 201 203 204 203 201 200 202 200 199 201 201 199 196 196 194 195
232 230 235 234 229 229 223 247 239 233 231 231 232 231 232 230 229 226 217 209 205 204 201 201 200 199 198 195 194 192 194 198 203 201 201 201 202 203 202 202 203 201 203 204 202 200 201 196 193
230 230 231 234 234 242 226 238 246 227 230 229 229 228 228 227 226 225 220 213 208 204 200 201 200 200 198 197 197 197 201 205 203 200 200 199 200 202 202 202 203 203 204 205 200 197 200 201 202
226 226 233 234 234 238 228 228 247 227 228 229 228 226 225 225 224 224 222 215 209 202 198 199 199 201 199 198 199 201 204 204 199 198 197 197 197 200 202 202 203 204 203 203 201 199 201 203 205
210 201 204 209 215 231 224 226 241 233 227 229 228 225 224 222 221 220 218 213 206 199 197 197 198 200 198 199 201 203 205 204 203 199 199 196 196 198 201 200 203 203 203 201 198 199 202 204 204
208 203 208 211 217 225 216 226 237 232 227 229 233 232 227 223 220 218 215 212 207 201 196 195 197 199 197 199 202 203 205 205 205 203 200 199 199 200 200 200 202 203 201 198 196 198 201 203 206
207 213 223 240 247 232 218 233 238 231 226 225 229 229 227 223 217 214 210 207 205 201 197 195 194 195 196 197 199 202 202 203 203 202 201 201 201 199 198 198 200 201 198 195 192 198 198 199 204
216 206 205 211 217 229 229 231 229 210 214 216 221 223 223 218 214 211 207 203 200 196 193 192 192 192 192 194 196 198 200 201 200 199 199 199 199 195 194 196 198 198 197 194 193 197 197 196 199
203 203 206 209 223 225 232 235 226 221 213 216 219 220 221 215 209 205 200 195 191 188 186 186 188 188 189 191 192 194 196 197 197 197 199 198 196 192 192 193 194 195 195 193 194 196 192 196 196
215 205 202 204 205 222 235 241 187 222 223 223 224 220 218 212 203 196 188 182 181 182 183 182 183 185 186 186 188 190 190 190 192 195 196 194 193 191 191 191 191 192 192 192 193 194 193 196 196
Height
1514 1515 1516 1518 1516 1509 1500 1493 1493 1494 1495 1495 1496 1496 1493 1492 1495 1498 1497 1496 1499 1502 1506 1510 1513 1517 1520 1523 1525 1527 1528 1530 1532 1533 1535 1536 1537 1537 1538 1538 1539 1539 1540 1540 1540 1540 1540 1540 1540
1514 1514 1517 1516 1509 1504 1495 1489 1491 1490 1492 1495 1495 1495 1494 1492 1494 1494 1494 1495 1499 1502 1506 1509 1513 1517 1520 1523 1525 1527 1528 1530 1532 1533 1535 1536 1537 1538 1538 1539 1539 1540 1540 1541 1541 1541 1541 1541 1541
1513 1514 1515 1509 1502 1495 1488 1487 1487 1489 1492 1493 1493 1493 1492 1492 1493 1493 1493 1495 1499 1502 1506 1510 1513 1517 1520 1522 1525 1527 1528 1530 1532 1534 1535 1536 1537 1538 1539 1539 1540 1540 1541 1541 1542 1542 1542 1542 1542
1513 1514 1512 1504 1494 1487 1485 1485 1488 1489 1491 1492 1492 1491 1491 1491 1491 1492 1493 1495 1499 1502 1506 1510 1513 1517 1520 1522 1525 1527 1529 1530 1532 1534 1535 1537 1538 1539 1539 1540 1540 1541 1541 1542 1542 1543 1543 1543 1543
1511 1509 1504 1497 1489 1483 1484 1486 1489 1488 1487 1488 1490 1487 1488 1489 1489 1490 1493 1495 1498 1502 1507 1510 1514 1517 1520 1523 1525 1527 1529 1531 1532 1534 1535 1537 1538 1539 1540 1540 1541 1542 1542 1543 1543 1544 1544 1544 1544
1508 1504 1498 1490 1482 1480 1482 1486 1487 1486 1485 1486 1488 1486 1486 1487 1488 1490 1493 1496 1499 1502 1506 1510 1514 1517 1520 1523 1525 1527 1529 1531 1532 1534 1536 1537 1538 1539 1540 1541 1542 1543 1543 1544 1544 1545 1545 1545 1545
1503 1498 1490 1483 1479 1478 1479 1482 1483 1481 1481 1483 1484 1483 1484 1486 1487 1489 1493 1496 1500 1503 1506 1510 1514 1517 1520 1523 1525 1527 1529 1531 1533 1534 1536 1537 1538 1540 1541 1542 1543 1543 1544 1545 1545 1546 1546 1546 1546
1498 1493 1485 1481 1478 1475 1476 1479 1479 1479 1478 1480 1482 1481 1482 1484 1485 1488 1492 1496 1499 1502 1506 1510 1513 1517 1519 1522 1525 1527 1529 1531 1533 1534 1536 1537 1539 1540 1541 1542 1543 1544 1545 1545 1546 1546 1547 1547 1547
1495 1491 1479 1474 1475 1472 1474 1476 1476 1477 1477 1478 1479 1479 1480 1481 1483 1486 1490 1494 1497 1501 1504 1508 1512 1516 1519 1521 1524 1526 1529 1531 1533 1534 1536 1538 1540 1541 1542 1543 1544 1545 1545 1546 1546 1547 1547 1548 1548
1487 1479 1470 1470 1471 1471 1472 1473 1473 1474 1473 1474 1476 1476 1476 1479 1481 1483 1486 1489 1492 1496 1501 1505 1510 1513 1517 1520 1522 1525 1528 1530 1532 1534 1535 1538 1540 1541 1542 1543 1544 1545 1545 1546 1547 1547 1548 1549 1549
1477 1469 1467 1469 1471 1472 1471 1471 1472 1471 1469 1469 1471 1473 1474 1477 1479 1481 1483 1486 1489 1493 1498 1502 1507 1511 1514 1517 1521 1524 1526 1528 1531 1533 1535 1537 1538 1540 1541 1543 1544 1545 1545 1547 1547 1548 1549 1549 1550
1469 1465 1466 1466 1469 1470 1469 1468 1468 1468 1466 1468 1469 1471 1471 1474 1476 1478 1481 1484 1488 1492 1495 1499 1503 1508 1512 1515 1518 1521 1524 1526 1529 1531 1534 1535 1537 1539 1540 1542 1543 1545 1545 1546 1547 1548 1549 1549 1549
1463 1461 1463 1465 1466 1466 1467 1465 1464 1463 1465 1466 1467 1468 1469 1471 1473 1476 1480 1483 1486 1488 1492 1496 1500 1504 1508 1512 1515 1519 1521 1524 1527 1529 1531 1534 1535 1537 1539 1541 1542 1544 1545 1546 1547 1548 1549 1549 1549
1456 1459 1459 1460 1461 1462 1462 1460 1461 1457 1461 1462 1463 1464 1465 1467 1470 1473 1477 1479 1482 1485 1488 1492 1496 1501 1505 1508 1512 1515 1519 1522 1525 1527 1529 1532 1534 1536 1537 1539 1541 1543 1544 1545 1546 1547 1548 1549 1549
1455 1455 1453 1453 1455 1456 1460 1454 1450 1453 1457 1457 1458 1460 1461 1463 1466 1468 1470 1473 1477 1481 1485 1488 1492 1497 1501 1505 1509 1512 1515 1518 1521 1524 1527 1529 1532 1534 1536 1538 1539 1541 1542 1544 1545 1546 1547 1548 1548
1450 1450 1447 1442 1447 1450 1457 1443 1439 1446 1450 1451 1452 1454 1456 1458 1460 1463 1466 1470 1474 1478 1481 1485 1489 1493 1497 1501 1505 1509 1512 1515 1518 1521 1524 1526 1529 1531 1534 1535 1537 1539 1541 1542 1544 1545 1546 1547 1547
1443 1440 1435 1435 1437 1441 1444 1435 1434 1439 1442 1443 1445 1447 1449 1452 1454 1457 1461 1465 1469 1472 1476 1480 1484 1488 1493 1497 1501 1505 1508 1511 1515 1517 1520 1523 1526 1529 1531 1533 1535 1537 1538 1540 1542 1543 1545 1546 1546
1431 1428 1426 1426 1427 1433 1433 1428 1429 1433 1435 1436 1438 1440 1442 1445 1447 1451 1454 1458 1463 1467 1471 1475 1479 1484 1489 1493 1497 1501 1504 1507 1510 1513 1516 1519 1522 1525 1528 1530 1532 1534 1536 1538 1540 1541 1542 1544 1544
1424 1422 1421 1419 1422 1428 1426 1423 1423 1426 1429 1430 1431 1433 1435 1438 1442 1445 1448 1452 1456 1460 1464 1469 1473 1478 1483 1487 1490 1494 1497 1501 1504 1508 1512 1515 1518 1521 1524 1526 1529 1531 1533 1535 1538 1539 1540 1541 1542
1424 1423 1420 1419 1420 1423 1421 1418 1416 1417 1420 1423 1424 1426 1428 1431 1435 1438 1441 1444 1448 1452 1456 1461 1466 1471 1475 1479 1483 1488 1492 1496 1499 1503 1506 1510 1513 1516 1519 1522 1525 1528 1530 1532 1534 1536 1538 1539 1540
1419 1420 1418 1419 1420 1421 1420 1415 1410 1408 1412 1415 1417 1418 1421 1423 1426 1430 1433 1437 1440 1444 1448 1453 1458 1463 1468 1473 1478 1483 1488 1491 1494 1496 1499 1503 1507 1511 1514 1518 1521 1524 1526 1528 1531 1533 1535 1536 1538
1414 1414 1416 1416 1420 1417 1418 1411 1397 1398 1401 1404 1407 1409 1411 1415 1418 1422 1426 1429 1432 1436 1441 1446 1451 1456 1461 1466 1470 1474 1477 1481 1484 1488 1492 1496 1501 1505 1509 1512 1516 1519 1522 1524 1527 1529 1531 1533 1534
1406 1410 1414 1415 1416 1416 1413 1410 1390 1388 1391 1392 1395 1398 1402 1406 1409 1413 1417 1421 1424 1429 1433 1438 1444 1449 1453 1458 1462 1466 1470 1475 1479 1484 1487 1491 1494 1498 1503 1507 1511 1514 1517 1520 1523 1525 1527 1529 1531
1405 1410 1412 1412 1416 1414 1403 1403 1387 1379 1379 1380 1384 1388 1392 1396 1400 1404 1409 1413 1417 1421 1426 1431 1436 1440 1445 1450 1454 1458 1463 1468 1472 1476 1480 1484 1488 1492 1496 1501 1505 1508 1512 1515 1518 1521 1523 1525 1527
1402 1408 1410 1408 1406 1394 1386 1390 1377 1367 1370 1372 1375 1379 1383 1387 1391 1395 1400 1404 1408 1413 1417 1422 1427 1432 1437 1442 1446 1451 1456 1461 1465 1469 1473 1477 1481 1485 1489 1494 1498 1502 1506 1510 1513 1516 1518 1520 1522
1391 1396 1394 1390 1383 1375 1377 1376 1362 1360 1364 1367 1370 1372 1375 1379 1382 1386 1390 1395 1400 1404 1409 1414 1419 1424 1429 1434 1439 1444 1449 1454 1458 1463 1467 1471 1475 1479 1483 1488 1492 1497 1501 1504 1508 1511 1513 1516 1518
1387 1387 1385 1386 1377 1373 1370 1361 1355 1356 1358 1361 1363 1365 1367 1370 1374 1378 1382 1387 1392 1396 1401 1406 1411 1417 1422 1427 1432 1437 1442 1447 1451 1456 1461 1465 1470 1474 1478 1482 1487 1491 1495 1499 1503 1506 1508 1511 1513
1381 1382 1386 1388 1381 1373 1364 1358 1347 1346 1350 1353 1356 1358 1360 1364 1367 1371 1375 1380 1384 1389 1395 1400 1405 1410 1415 1420 1425 1430 1435 1440 1445 1450 1455 1459 1464 1469 1473 1477 1482 1486 1490 1494 1497 1501 1503 1506 1508
1379 1382 1382 1380 1372 1365 1357 1345 1333 1335 1340 1343 1346 1349 1353 1357 1361 1365 1369 1374 1378 1383 1388 1394 1399 1404 1409 1414 1419 1424 1429 1434 1439 1444 1449 1454 1459 1463 1468 1472 1476 1480 1484 1488 1492 1495 1498 1501 1503
1373 1374 1377 1375 1370 1362 1352 1339 1330 1333 1334 1338 1341 1344 1348 1352 1356 1360 1364 1368 1373 1378 1383 1388 1393 1398 1404 1409 1413 1418 1423 1428 1433 1438 1443 1449 1454 1458 1463 1467 1471 1475 1479 1483 1487 1490 1493 1495 1497